Погода в Паневежисе

Поиск расширенной информации на нашем сайте:

Полезная информация:

Новости сайта



02.01.2020
Опубликован Долгосрочный прогноз погоды по городам России и ближнего зарубежья на январь 2020 года.
Карты: Прогноз на январь и февраль 2020 года, Сравнение прогнозируемой аномалии приземной температуры воздуха на январь 2020 года по разным моделям.




Погода в Паневежисе - сегодня

Время (UTC), дата Ветер
(°,м/с) 
Видим.   Явления Облачность Т
(°С)
Тd
(°С)
f(%) Тe
(°С)
Pmin
(гПа)
dP
(гПа)
Po
(мм)
O2
(г/м3)
Тmin Tmax R s Состояние
почвы
09 26.02.20 210 (ЮЗ) 5-7{08}  20000 м    1/0 
+3.8 +0.7 80 +1  989.7  0.2  737  293           
12 26.02.20 210 (ЮЗ) 5-9{09}  19000 м    9/9 600 м 
+7 +0.6 64 +5  989.6  737  289           
15 26.02.20 230 (ЮЗ) 4-6{10}  20000 м  слаб. дождь  9/9 600 м 
+6 +0.2 66 +4  990.3  0.7  737  291      0.0     
18 26.02.20 220 (ЮЗ) 1-2{09}  12000 м  в посл. час дождь  9/9 1000 м 
+3.1 +1.2 87 +4  991.5  1.1  738  294    +7.3  0.5     
21 26.02.20 170 (Ю) 1-2{03}  13000 м    9/9 1500 м 
+2.2 +0.8 90 +3  991.7  0.2  738  295      0.5     
00 27.02.20 тихо () -2{03}  8000 м  дымка  10/10 1500 м 
+1.2 +0.3 94 +1  992.1  0.3  739  296           
03 27.02.20 210 (ЮЗ) 1-3{04}  19000 м    4/0 
+0.3 -1.1 90 +1  992.5  0.4  739  298           
06 27.02.20 200 (Ю) 3-4{04}  19000 м    ясно 
-0.8 -1.6 94 -3  993  0.5  739  299  -1         
09 27.02.20 220 (ЮЗ) 5-7{08}  20000 м    10/10 300 м 
+1.4 -0.8 85 -1  993.5  0.5  740  297           
12 27.02.20 220 (ЮЗ) 6-11{11}  9000 м  слаб. дождь со снегом  9/0 
+1.7 -0.4 86 -1  992.9  -0.6  739  296      0.0     
15 27.02.20 240 (ЮЗ) 7-12{12}  19000 м  слаб. дождь  9/0 2000 м 
+1.9 -0.3 85 -2  993.4  0.5  740  296      0.9     
18 27.02.20 230 (ЮЗ) 6-11{12}  20000 м  в посл. час снег  10/10 600 м 
+1.1 -2.2 79 -2  994  0.6  740  297    +2.8  0.9     
21 27.02.20 230 (ЮЗ) 6-10{11}  20000 м  слаб. снег  10/10 300 м 
+0.7 -2 82 -3  994.2  0.2  740  298      0.0     
00 28.02.20 230 (ЮЗ) 6-9{11}  14000 м  слаб. ливневой снег  10/10 300 м 
+0.5 -1.2 88 -3  994.9  0.7  741  298      0.5     
03 28.02.20 270 (З) 4-7{10}  4400 м  слаб. снег  10/10 100 м 
+0.3 -0.6 94 -2  996.1  1.2  742  299      0.9     
06 28.02.20 320 (СЗ) 2-4{07}  4800 м  слаб. снег  10/10 300 м 
-0.1 -0.3 99 -1  998.5  2.3  743  300  +0       
09 28.02.20 300 (СЗ) 2-3{05}  7000 м  слаб. ливневой снег  10/10 600 м 
-0.3 -1 95 -1  1001.3  2.8  746  301         
12 28.02.20 280 (З) 3-4{05}  18000 м    9/9 1000 м 
+0.9 -0.7 89 -1  1003.2  1.9  747  300           
15 28.02.20 310 (СЗ) 2-3{05}  20000 м    8/8 1500 м 
+1.1 -0.9 86 1004.9  1.7  748  300           
18 28.02.20 220 (ЮЗ) 2-3{04}  7000 м  дымка  1/0 
-0.6 -1.6 93 -1  1006.2  1.3  749  303    +1.1       
21 28.02.20 230 (ЮЗ) 3-4{04}  19000 м    ясно 
-0.9 -1.5 96 -3  1006.8  0.6  750  303           
00 29.02.20 220 (ЮЗ) 2-3{04}  18000 м  слаб. ливневой снег  10/10 1000 м 
-0.4 -1.1 95 -1  1007  0.2  750  303      0.0     
03 29.02.20 250 (З) 1-3{04}  10 км    9/9 600 м 
-0.2 -0.5 98 1007.2  0.2  750  302           
06 29.02.20 тихо () -2{03}  6000 м  в посл. час туман  3/0 
-3.2 -3.6 97 -3  1007.3  750  306  -2.8         
09 29.02.20 220 (ЮЗ) 2-3{05}  20000 м    10/10 600 м 
+0.7 -1.6 85 1007.3  0.1  750  302           
Время (UTC), дата Ветер
(°,м/с) 
Видим.   Явления Облачность Т
(°С)
Тd
(°С)
f(%) Тe
(°С)
Pmin
(гПа)
dP
(гПа)
Po
(мм)
O2
(г/м3)
Тmin Tmax R s Состояние
почвы

Для получения пояснительной информации подведите курсор к названию столбца.

ПОГОДА в Паневежисе - архив

Всё, что Вы хотите узнать о погоде в Паневежисе - удобно и подробно!

Выберите нужную дату (начиная с 1 января 2019* года) и нажмите кнопку "Найти".
Будут отображены архивные сводки погоды по пункту Паневежис, начиная с указанной даты.


Отображать данные в формате CSV (для использования в таблицах Excel)


Внимание! Наш архив погоды предназначен исключительно для личного некоммерческого использования в познавательных целях. Если Вам необходимы официальные справки о состоянии погоды (для производственных, юридических, коммерческих и т.п. целей), обращайтесь в органы Росгидромета.

*Примечание: данная дата относится к архиву по метеостанциям СССР (Россия, СНГ, Балтия).
Архив по метеостанциям Зарубежной Европы и Азии (кроме Китая) хранится 10 дней, по другим регионам земного шара (Китай, Африка, Америка, Австралия, Океания) - 1 день.

Паневежис - район местоположения метеостанции


Название, широта, долгота, высота метеостанции:
Паневежис 55.8°ш. 24.4°д. 58 м над ур. моря [Литва]

Дополнительная информация

В oтличие oт бoльшинства пoгoдных сайтoв мы публикуем пoдрoбную метеoинфoрмацию в детальнoм прoфессиoнальнoм фoрмате.

Характеристики температуры и влажнoсти вoздуха измеряются на высoте 2 м в тени вдали oт зданий и деревьев.
Скoрoсть ветра измеряется на высoте 10 м (на урoвне рoста челoвека скoрoсть ветра ниже в 1.5-2 раза). Если метеoстанция нахoдится в гoрoде или в лесу, тo скoрoсть ветра занижена на 2-4 м/с пo сравнению с oткрытым местoм. Скoрoсть ветра над акватoриями крупных рек и oзёр, а также на вершинах хoлмoв на 2-5 м/с выше, чем в oбычных услoвиях.
Атмoсфернoе давление в разных тoчках местнoсти мoжет значительнo oтличаться oт давления на метеoстанции, в зависимoсти oт услoвий рельефа (при пoдъёме на 10 м давление пoнижается примернo на 1 мм рт.ст.).